Change the Weather History Date:

Monday, April 22, 2013

  Actual Average Record
Temperature  
Mean Temperature 34 °F 50 °F  
Max Temperature 38 °F 62 °F 89 °F (1960)
Min Temperature 29 °F 38 °F 25 °F (1967)
Degree Days  
Heating Degree Days 31 15  
Month to date heating degree days 621 437  
Since 1 July heating degree days 7459 7352  
Cooling Degree Days 0 0  
Month to date cooling degree days 0 0  
Year to date cooling degree days 0 0  
Moisture  
Dew Point 32 °F    
Average Humidity 93    
Maximum Humidity 100    
Minimum Humidity 85    
Precipitation  
Precipitation 0.44 in 0.13 in 1.68 in (1975)
Month to date precipitation 4.20 2.27  
Sea Level Pressure  
Sea Level Pressure 30.12 in    
Wind  
Wind Speed 18 mph (NNE)    
Max Wind Speed 29 mph    
Max Gust Speed 35 mph    
Visibility 3 miles    
Events Fog , Rain , Snow    
T = Trace of Precipitation, MM = Missing Value Source: NWS Daily Summary

Daily Weather History Graph

Daily Weather History Graph

Search for Another Location

Airport or City:

Trip Planner

Search our weather history database for the weather conditions in past years. The results will help you decide how hot, cold, wet, or windy it might be!

Date:

Astronomy

Apr. 22, 2013 Rise Set
Actual Time 6:24 AM CDT 8:10 PM CDT
Civil Twilight 5:54 AM CDT 8:41 PM CDT
Nautical Twilight 5:17 AM CDT 9:18 PM CDT
Astronomical Twilight 4:37 AM CDT 9:58 PM CDT
Moon 4:55 PM CDT (4/22) 4:25 AM CDT (4/22)
Length of Visible Light 14h 46m
Length of Day
13h 45m
Waxing Gibbous, 88% of the Moon is Illuminated
Apr 22
Waxing Gibbous
Apr 25
Full
May 2
Last Quarter
May 9
New
May 17
First Quarter

Hourly Weather History & Observations

Time (CDT) Temp. Windchill Dew Point Humidity Pressure Visibility Wind Dir Wind Speed Gust Speed Precip Events Conditions
12:52 AM 37.9 °F 29.6 °F 34.0 °F 86% 30.19 in 9.0 mi North 13.8 mph - N/A   Overcast
1:52 AM 37.0 °F 28.9 °F 34.0 °F 89% 30.17 in 10.0 mi North 12.7 mph - N/A   Overcast
2:19 AM 37.4 °F 31.4 °F 33.8 °F 87% 30.15 in 9.0 mi North 8.1 mph - N/A   Overcast
2:52 AM 37.0 °F 30.4 °F 35.1 °F 93% 30.16 in 8.0 mi North 9.2 mph - N/A   Overcast
3:52 AM 37.0 °F 29.3 °F 34.0 °F 89% 30.15 in 8.0 mi North 11.5 mph - N/A   Overcast
4:52 AM 37.0 °F 29.3 °F 34.0 °F 89% 30.15 in 7.0 mi North 11.5 mph - N/A   Overcast
5:52 AM 36.0 °F 28.5 °F 34.0 °F 93% 30.15 in 6.0 mi NNE 10.4 mph - N/A   Overcast
7:52 AM 34.0 °F 23.8 °F 32.0 °F 92% 30.16 in 5.0 mi NNE 16.1 mph - N/A   Overcast
8:31 AM 33.8 °F 23.2 °F 33.8 °F 100% 30.11 in 2.5 mi NE 17.3 mph - N/A   Overcast
8:52 AM 35.1 °F 25.9 °F 33.1 °F 92% 30.17 in 2.5 mi ENE 13.8 mph - N/A   Overcast
9:12 AM 35.6 °F 26.2 °F 33.8 °F 93% 30.13 in 1.2 mi NNE 15.0 mph - 0.00 in   Overcast
9:42 AM 35.6 °F 26.2 °F 33.8 °F 93% 30.12 in 2.5 mi NE 15.0 mph - 0.00 in   Overcast
9:50 AM 35.6 °F 26.2 °F 33.8 °F 93% 30.12 in 4.0 mi NE 15.0 mph - 0.00 in   Overcast
9:52 AM 35.1 °F 25.5 °F 33.1 °F 92% 30.15 in 4.0 mi NE 15.0 mph - 0.01 in   Overcast
10:23 AM 35.6 °F 25.5 °F 33.8 °F 93% 30.11 in 2.0 mi NE 17.3 mph - 0.00 in Rain Light Rain
10:52 AM 35.1 °F 24.1 °F 33.1 °F 92% 30.14 in 3.0 mi NE 19.6 mph - 0.01 in   Overcast
11:05 AM 35.6 °F 25.9 °F 33.8 °F 93% 30.11 in 4.0 mi NE 16.1 mph - N/A   Overcast
11:28 AM 35.6 °F 26.2 °F 33.8 °F 93% 30.12 in 2.5 mi NNE 15.0 mph - 0.00 in   Overcast
11:52 AM 35.1 °F 24.1 °F 33.1 °F 92% 30.12 in 1.8 mi NE 19.6 mph - 0.01 in Snow Light Snow
12:01 PM 35.6 °F 25.9 °F 33.8 °F 93% 30.09 in 2.0 mi NE 16.1 mph - 0.01 in Rain Rain
12:16 PM 35.6 °F 26.2 °F 33.8 °F 93% 30.10 in 1.5 mi NNE 15.0 mph - 0.01 in Snow Light Snow
12:49 PM 35.6 °F 26.6 °F 33.8 °F 93% 30.10 in 1.0 mi NNE 13.8 mph - 0.05 in Rain Rain
12:52 PM 35.1 °F 26.9 °F 34.0 °F 96% 30.14 in 1.2 mi NNE 11.5 mph - 0.05 in Rain Rain
1:21 PM 35.6 °F 25.9 °F 33.8 °F 93% 30.09 in 2.0 mi North 16.1 mph - 0.03 in Snow Light Snow
1:25 PM 35.6 °F 25.9 °F 33.8 °F 93% 30.09 in 3.0 mi North 16.1 mph - 0.03 in Snow Light Snow
1:52 PM 36.0 °F 25.6 °F 33.1 °F 89% 30.11 in 6.0 mi North 18.4 mph - 0.03 in   Overcast
2:52 PM 35.1 °F 24.1 °F 33.1 °F 92% 30.09 in 4.0 mi NNE 19.6 mph 25.3 mph 0.09 in Rain Light Rain
3:12 PM 35.6 °F 25.2 °F 33.8 °F 93% 30.04 in 2.5 mi NNE 18.4 mph - 0.02 in Rain Rain
3:24 PM 33.8 °F 22.5 °F 33.8 °F 100% 30.04 in 4.0 mi North 19.6 mph - 0.03 in Snow Light Snow
3:52 PM 33.1 °F 21.5 °F 32.0 °F 96% 30.09 in 4.0 mi North 19.6 mph 26.5 mph 0.05 in Rain Rain
4:22 PM 33.8 °F 22.2 °F 30.2 °F 87% 30.04 in 2.5 mi North 20.7 mph 26.5 mph 0.03 in Rain Rain
4:31 PM 33.8 °F 22.2 °F 30.2 °F 87% 30.04 in 4.0 mi North 20.7 mph 27.6 mph 0.04 in Rain Rain
4:52 PM 33.1 °F 21.2 °F 30.9 °F 92% 30.09 in 3.0 mi North 20.7 mph 28.8 mph 0.08 in Snow Light Snow
4:56 PM 33.8 °F 21.9 °F 30.2 °F 87% 30.05 in 1.8 mi North 21.9 mph 28.8 mph 0.01 in Snow Light Snow
5:02 PM 33.8 °F 22.2 °F 30.2 °F 87% 30.05 in 0.8 mi North 20.7 mph 28.8 mph 0.02 in Snow Light Snow
5:52 PM 32.0 °F 19.2 °F 30.9 °F 96% 30.10 in 0.2 mi North 23.0 mph 29.9 mph 0.05 in Fog , Snow Snow
6:52 PM 32.0 °F 18.4 °F 30.0 °F 92% 30.11 in 0.2 mi North 26.5 mph - 0.02 in Fog , Snow Snow
7:18 PM 30.2 °F 15.9 °F 30.2 °F 100% 30.08 in 0.2 mi North 26.5 mph 34.5 mph 0.01 in Fog , Snow Heavy Snow
7:52 PM 30.9 °F 18.1 °F 30.0 °F 96% 30.12 in 0.2 mi North 21.9 mph 28.8 mph 0.03 in Fog Light Freezing Fog
8:32 PM 30.2 °F 16.8 °F 30.2 °F 100% 30.10 in 0.8 mi North 23.0 mph 29.9 mph 0.01 in Snow Light Snow
8:40 PM 30.2 °F 16.5 °F 30.2 °F 100% 30.09 in 0.8 mi North 24.2 mph - 0.01 in Snow Light Snow
8:52 PM 30.9 °F 16.9 °F 28.9 °F 92% 30.16 in 0.8 mi North 26.5 mph 34.5 mph 0.01 in Snow Light Snow
8:57 PM 30.2 °F 16.5 °F 28.4 °F 93% 30.13 in 1.2 mi North 24.2 mph 34.5 mph 0.00 in Snow Light Snow
9:11 PM 30.2 °F 15.9 °F 28.4 °F 93% 30.14 in 2.0 mi NNW 26.5 mph 29.9 mph 0.00 in Snow Light Snow
9:21 PM 30.2 °F 16.5 °F 28.4 °F 93% 30.13 in 1.8 mi North 24.2 mph 32.2 mph 0.00 in Snow Light Snow
9:31 PM 30.2 °F 15.4 °F 28.4 °F 93% 30.14 in 2.5 mi North 28.8 mph 33.4 mph 0.00 in Snow Light Snow
9:52 PM 30.0 °F 16.6 °F 28.0 °F 92% 30.18 in 2.0 mi North 23.0 mph 31.1 mph 0.00 in Snow Light Snow
9:59 PM 30.2 °F 15.9 °F 28.4 °F 93% 30.14 in 1.8 mi North 26.5 mph 29.9 mph 0.00 in Snow Light Snow
10:10 PM 30.2 °F 15.9 °F 28.4 °F 93% 30.14 in 2.5 mi North 26.5 mph 32.2 mph 0.00 in Snow Light Snow
10:21 PM 30.2 °F 15.4 °F 28.4 °F 93% 30.14 in 3.0 mi North 28.8 mph 34.5 mph 0.00 in Snow Light Snow
10:52 PM 30.9 °F 18.1 °F 28.0 °F 89% 30.19 in 3.0 mi North 21.9 mph 33.4 mph 0.00 in Snow Light Snow
11:52 PM 30.0 °F 15.7 °F 28.0 °F 92% 30.19 in 7.0 mi North 26.5 mph 32.2 mph 0.00 in   Overcast